Location: Unspecified
(0.0000°N, 0.0000°E)
Time: 04:09:20
(UTC+00:00)

Transit 4A - Pass Details

Date: 03 October 2020
Orbit: 862 x 982 km, 66.8° (Epoch: 28 October)

Event Time Altitude Azimuth Distance (km) Brightness Sun altitude
Rises 07:03:15 0° 347° (NNW) 3,647 10.8 18.5°
Reaches altitude 10° 07:05:52 10° 350° (N) 2,690 10.2 19.2°
Maximum altitude 07:12:04 63° 70° (ENE) 1,049 9.1 20.7°
Drops below altitude 10° 07:18:07 10° 151° (SSE) 2,623 10.8 22.2°
Sets 07:20:37 0° 154° (SSE) 3,549 11.4 22.9°
